Weather History for KMQJ - December, 2013

Change the Weather History Date:

Friday, December 27, 2013

  Actual Average (KEYE) Record (KEYE)
Temperature  
Mean Temperature 36 °F 29 °F  
Max Temperature 46 °F 36 °F 68 °F (2008)
Min Temperature 26 °F 22 °F 1 °F (2004)
Degree Days  
Heating Degree Days 29 36  
Month to date heating degree days 886  
Since 1 July heating degree days 1910  
Cooling Degree Days 0 0  
Month to date cooling degree days 0  
Year to date cooling degree days 1058  
Moisture  
Dew Point 28 °F    
Average Humidity 72    
Maximum Humidity 87    
Minimum Humidity 57    
Precipitation  
Precipitation 0.00 in 0.13 in 0.82 in (2008)
Month to date precipitation 2.56  
Year to date precipitation 40.27  
Sea Level Pressure  
Sea Level Pressure 30.30 in    
Wind  
Wind Speed 8 mph (SSW)    
Max Wind Speed 13 mph    
Max Gust Speed -    
Visibility 10 miles    
Events      
T = Trace of Precipitation, MM = Missing Value Source: NWS Daily Summary

Daily Weather History Graph

Daily Weather History Graph

Search for Another Location

Airport or City:

Trip Planner

Search our weather history database for the weather conditions in past years. The results will help you decide how hot, cold, wet, or windy it might be!

Date:

Astronomy

Dec. 27, 2013 Rise Set
Actual Time 8:03 AM EST 5:25 PM EST
Civil Twilight 7:33 AM EST 5:56 PM EST
Nautical Twilight 6:59 AM EST 6:30 PM EST
Astronomical Twilight 6:26 AM EST 7:03 PM EST
Moon 2:35 AM EST (12/27) 1:35 PM EST (12/27)
Length of Visible Light 10h 22m
Length of Day
9h 21m
Waning Crescent, 28% of the Moon is Illuminated
Dec 27
Waning Crescent
Jan 1
New
Jan 7
First Quarter
Jan 15
Full
Jan 24
Last Quarter

Hourly Weather History & Observations

Time (EST) Temp. Windchill Dew Point Humidity Pressure Visibility Wind Dir Wind Speed Gust Speed Precip Events Conditions
12:14 AM 32.0 °F 24.8 °F 24.8 °F 75% 30.31 in 10.0 mi SSW 8.1 mph - N/A   Clear
12:35 AM 32.0 °F 24.8 °F 24.8 °F 75% 30.31 in 10.0 mi SSW 8.1 mph - N/A   Clear
12:54 AM 32.0 °F 24.8 °F 24.8 °F 75% 30.31 in 10.0 mi SSW 8.1 mph - N/A   Clear
1:14 AM 32.0 °F 24.2 °F 24.8 °F 75% 30.31 in 10.0 mi SSW 9.2 mph - N/A   Scattered Clouds
1:34 AM 32.0 °F 23.6 °F 24.8 °F 75% 30.30 in 10.0 mi SSW 10.4 mph - N/A   Scattered Clouds
1:54 AM 32.0 °F 23.0 °F 24.8 °F 75% 30.30 in 10.0 mi SSW 11.5 mph - N/A   Scattered Clouds
2:14 AM 33.8 °F 25.3 °F 24.8 °F 70% 30.30 in 10.0 mi SSW 11.5 mph - N/A   Mostly Cloudy
2:34 AM 33.8 °F 24.8 °F 24.8 °F 70% 30.30 in 10.0 mi SSW 12.7 mph - N/A   Mostly Cloudy
2:54 AM 33.8 °F 25.3 °F 24.8 °F 70% 30.30 in 10.0 mi SW 11.5 mph - N/A   Scattered Clouds
3:15 AM 33.8 °F 24.8 °F 24.8 °F 70% 30.30 in 10.0 mi SW 12.7 mph - N/A   Scattered Clouds
3:34 AM 33.8 °F 25.8 °F 24.8 °F 70% 30.30 in 10.0 mi SW 10.4 mph - N/A   Scattered Clouds
3:54 AM 33.8 °F 25.8 °F 24.8 °F 70% 30.30 in 10.0 mi SW 10.4 mph - N/A   Clear
4:15 AM 32.0 °F 23.0 °F 24.8 °F 75% 30.30 in 10.0 mi SW 11.5 mph - N/A   Clear
4:34 AM 32.0 °F 23.6 °F 24.8 °F 75% 30.30 in 10.0 mi SW 10.4 mph - N/A   Clear
4:54 AM 32.0 °F 24.8 °F 24.8 °F 75% 30.30 in 10.0 mi SW 8.1 mph - N/A   Clear
5:15 AM 32.0 °F 24.8 °F 24.8 °F 75% 30.29 in 10.0 mi SW 8.1 mph - N/A   Clear
5:34 AM 30.2 °F 22.6 °F 24.8 °F 80% 30.29 in 10.0 mi SW 8.1 mph - N/A   Clear
5:54 AM 30.2 °F 24.3 °F 24.8 °F 80% 30.30 in 10.0 mi SW 5.8 mph - N/A   Clear
6:15 AM 30.2 °F 24.3 °F 24.8 °F 80% 30.30 in 10.0 mi SW 5.8 mph - N/A   Clear
6:34 AM 30.2 °F 25.4 °F 24.8 °F 80% 30.30 in 10.0 mi SSW 4.6 mph - N/A   Clear
6:54 AM 28.4 °F 23.3 °F 23.0 °F 80% 30.30 in 10.0 mi SSW 4.6 mph - N/A   Clear
7:14 AM 28.4 °F 24.6 °F 23.0 °F 80% 30.31 in 10.0 mi South 3.5 mph - N/A   Clear
7:34 AM 26.6 °F 22.6 °F 23.0 °F 86% 30.31 in 10.0 mi South 3.5 mph - N/A   Clear
7:55 AM 26.6 °F 21.2 °F 23.0 °F 86% 30.32 in 10.0 mi South 4.6 mph - N/A   Clear
8:14 AM 26.6 °F 20.0 °F 23.0 °F 86% 30.32 in 10.0 mi South 5.8 mph - N/A   Clear
8:34 AM 28.4 °F 23.3 °F 24.8 °F 86% 30.34 in 10.0 mi South 4.6 mph - N/A   Clear
8:55 AM 30.2 °F - 24.8 °F 80% 30.34 in 10.0 mi Calm Calm - N/A   Clear
9:14 AM 30.2 °F - 24.8 °F 80% 30.36 in 10.0 mi Calm Calm - N/A   Clear
9:34 AM 32.0 °F 28.7 °F 26.6 °F 80% 30.36 in 10.0 mi South 3.5 mph - N/A   Clear
9:55 AM 33.8 °F 29.6 °F 26.6 °F 75% 30.37 in 10.0 mi South 4.6 mph - N/A   Clear
10:14 AM 35.6 °F 31.7 °F 26.6 °F 70% 30.38 in 10.0 mi SSW 4.6 mph - N/A   Clear
10:34 AM 37.4 °F 32.1 °F 28.4 °F 70% 30.38 in 10.0 mi SW 6.9 mph - N/A   Clear
10:55 AM 37.4 °F 33.8 °F 28.4 °F 70% 30.37 in 10.0 mi South 4.6 mph - N/A   Clear
11:14 AM 39.2 °F 35.0 °F 28.4 °F 65% 30.37 in 10.0 mi SW 5.8 mph - N/A   Clear
11:34 AM 39.2 °F 34.2 °F 30.2 °F 70% 30.36 in 10.0 mi SSW 6.9 mph - N/A   Clear
11:55 AM 41.0 °F 38.0 °F 30.2 °F 65% 30.36 in 10.0 mi South 4.6 mph - N/A   Clear
12:14 PM 41.0 °F 37.1 °F 30.2 °F 65% 30.34 in 10.0 mi South 5.8 mph - N/A   Clear
12:34 PM 42.8 °F 38.0 °F 30.2 °F 61% 30.34 in 10.0 mi South 8.1 mph - N/A   Clear
12:55 PM 42.8 °F 40.1 °F 30.2 °F 61% 30.33 in 10.0 mi SSW 4.6 mph - N/A   Clear
1:14 PM 42.8 °F 38.6 °F 32.0 °F 66% 30.32 in 10.0 mi South 6.9 mph - N/A   Clear
1:34 PM 44.6 °F 40.2 °F 32.0 °F 61% 30.32 in 10.0 mi SSW 8.1 mph - N/A   Clear
1:54 PM 44.6 °F 40.7 °F 32.0 °F 61% 30.31 in 10.0 mi SSW 6.9 mph - N/A   Clear
2:14 PM 44.6 °F 39.7 °F 32.0 °F 61% 30.30 in 10.0 mi South 9.2 mph - N/A   Clear
2:34 PM 44.6 °F 39.7 °F 32.0 °F 61% 30.30 in 10.0 mi South 9.2 mph - N/A   Clear
2:54 PM 46.4 °F 41.9 °F 32.0 °F 57% 30.29 in 10.0 mi SSW 9.2 mph - N/A   Clear
3:14 PM 46.4 °F 42.9 °F 32.0 °F 57% 30.29 in 10.0 mi SSW 6.9 mph - N/A   Clear
3:35 PM 46.4 °F 41.9 °F 32.0 °F 57% 30.28 in 10.0 mi SSW 9.2 mph - N/A   Clear
3:54 PM 46.4 °F 42.4 °F 32.0 °F 57% 30.28 in 10.0 mi SSW 8.1 mph - N/A   Clear
4:14 PM 46.4 °F 42.9 °F 32.0 °F 57% 30.28 in 10.0 mi South 6.9 mph - N/A   Clear
4:35 PM 44.6 °F 40.7 °F 32.0 °F 61% 30.28 in 10.0 mi SSW 6.9 mph - N/A   Clear
4:54 PM 44.6 °F 41.4 °F 32.0 °F 61% 30.28 in 10.0 mi SSW 5.8 mph - N/A   Clear
5:14 PM 42.8 °F 40.1 °F 32.0 °F 66% 30.28 in 10.0 mi South 4.6 mph - N/A   Clear
5:35 PM 41.0 °F 38.0 °F 30.2 °F 65% 30.28 in 10.0 mi South 4.6 mph - N/A   Clear
5:54 PM 39.2 °F 35.0 °F 30.2 °F 70% 30.28 in 10.0 mi South 5.8 mph - N/A   Clear
6:14 PM 39.2 °F 35.0 °F 30.2 °F 70% 30.28 in 10.0 mi South 5.8 mph - N/A   Clear
6:35 PM 37.4 °F 32.8 °F 30.2 °F 75% 30.28 in 10.0 mi South 5.8 mph - N/A   Clear
6:54 PM 37.4 °F 32.8 °F 30.2 °F 75% 30.28 in 10.0 mi South 5.8 mph - N/A   Clear
7:14 PM 37.4 °F 32.8 °F 30.2 °F 75% 30.27 in 10.0 mi SSW 5.8 mph - N/A   Clear
7:35 PM 37.4 °F 32.1 °F 30.2 °F 75% 30.28 in 10.0 mi SSW 6.9 mph - N/A   Clear
7:54 PM 37.4 °F 31.4 °F 30.2 °F 75% 30.27 in 10.0 mi South 8.1 mph - N/A   Clear
8:14 PM 37.4 °F 32.1 °F 30.2 °F 75% 30.27 in 10.0 mi SSW 6.9 mph - N/A   Clear
8:35 PM 37.4 °F 30.8 °F 30.2 °F 75% 30.27 in 10.0 mi SSW 9.2 mph - N/A   Clear
8:54 PM 37.4 °F 31.4 °F 30.2 °F 75% 30.28 in 10.0 mi SSW 8.1 mph - N/A   Clear
9:14 PM 37.4 °F 31.4 °F 30.2 °F 75% 30.28 in 10.0 mi SSW 8.1 mph - N/A   Clear
9:35 PM 37.4 °F 30.3 °F 30.2 °F 75% 30.27 in 10.0 mi SSW 10.4 mph - N/A   Clear
9:54 PM 37.4 °F 30.3 °F 30.2 °F 75% 30.27 in 10.0 mi SSW 10.4 mph - N/A   Clear
10:14 PM 37.4 °F 30.3 °F 30.2 °F 75% 30.27 in 10.0 mi SSW 10.4 mph - N/A   Clear
10:34 PM 37.4 °F 30.8 °F 30.2 °F 75% 30.27 in 10.0 mi SSW 9.2 mph - N/A   Clear
10:54 PM 37.4 °F 30.3 °F 32.0 °F 81% 30.26 in 10.0 mi SSW 10.4 mph - N/A   Clear
11:15 PM 37.4 °F 30.8 °F 32.0 °F 81% 30.25 in 10.0 mi SSW 9.2 mph - N/A   Clear
11:34 PM 37.4 °F 30.8 °F 32.0 °F 81% 30.25 in 10.0 mi SSW 9.2 mph - N/A   Clear
11:54 PM 35.6 °F 29.2 °F 32.0 °F 87% 30.24 in 10.0 mi SSW 8.1 mph - N/A   Clear